Weather History for Batman, Turkey

Change the Weather History Date:

Friday, July 12, 2013

  Actual Average (LTCC) Record (LTCC)
Temperature  
Mean Temperature 88 °F -  
Max Temperature 104 °F 99 °F 107 °F (2000)
Min Temperature 71 °F 70 °F 53 °F (1998)
Cooling Degree Days 22    
Growing Degree Days 38 (Base 50)    
Moisture  
Dew Point 48 °F    
Average Humidity 26    
Maximum Humidity 68    
Minimum Humidity 6    
Precipitation  
Precipitation 0.00 in - - ()
Sea Level Pressure  
Sea Level Pressure 29.53 in    
Wind  
Wind Speed 5 mph ()    
Max Wind Speed 18 mph    
Max Gust Speed -    
Visibility 7.1 miles    
Events      
Averages and records for this station are not official NWS values.
T = Trace of Precipitation, MM = Missing Value Source: Averaged Metar Reports

Daily Weather History Graph

Daily Weather History Graph

Search for Another Location

Airport:

Trip Planner

Search our weather history database for the weather conditions in past years. The results will help you decide how hot, cold, wet, or windy it might be!

Date:

Astronomy

Jul. 12, 2013 Rise Set
Actual Time 5:03 AM EEST 7:38 PM EEST
Civil Twilight 4:32 AM EEST 8:09 PM EEST
Nautical Twilight 3:54 AM EEST 8:47 PM EEST
Astronomical Twilight 3:11 AM EEST 9:30 PM EEST
Moon 8:53 AM EEST (7/12) 9:43 PM EEST (7/12)
Length of Visible Light 15h 37m
Length of Day
14h 35m
Waxing Crescent, 15% of the Moon is Illuminated
Jul 12
Waxing Crescent
Jul 16
First Quarter
Jul 22
Full
Jul 29
Last Quarter
Aug 7
New

Hourly Weather History & Observations

Time (EEST) Temp. Heat Index Dew Point Humidity Pressure Visibility Wind Dir Wind Speed Gust Speed Precip Events Conditions
12:20 AM 80.6 °F - 48.2 °F 32% 29.50 in - South 5.8 mph - N/A   Clear
12:50 AM 78.8 °F - 48.2 °F 34% 29.53 in - South 6.9 mph - N/A   Clear
1:20 AM 77.0 °F - 51.8 °F 41% 29.53 in - Variable 1.2 mph - N/A   Clear
1:50 AM 78.8 °F - 48.2 °F 34% 29.53 in - South 6.9 mph - N/A   Clear
2:20 AM 73.4 °F - 53.6 °F 50% 29.53 in - Variable 2.3 mph - N/A   Clear
2:50 AM 71.6 °F - 51.8 °F 50% 29.53 in - NE 4.6 mph - N/A   Clear
3:00 AM 80 °F - 41 °F 15% 29.38 in 12 mi Calm Calm - -  
3:20 AM 69.8 °F - 57.2 °F 64% 29.53 in - Variable 2.3 mph - N/A   Clear
3:50 AM 68.0 °F - 57.2 °F 68% 29.53 in - NNE 5.8 mph - N/A   Clear
4:20 AM 68.0 °F - 57.2 °F 68% 29.56 in - North 6.9 mph - N/A   Clear
4:50 AM 68.0 °F - 55.4 °F 64% 29.56 in - NNE 6.9 mph - N/A   Clear
5:20 AM 68.0 °F - 53.6 °F 60% 29.56 in - NNE 4.6 mph - N/A   Clear
5:50 AM 69.8 °F - 53.6 °F 56% 29.56 in - NNE 4.6 mph - N/A   Clear
6:00 AM 72 °F - 39 °F 20% 29.43 in 12 mi SE 2.3 mph - -  
6:20 AM 71.6 °F - 53.6 °F 53% 29.56 in - NNE 4.6 mph - N/A   Clear
7:20 AM 80.6 °F 80.8 °F 57.2 °F 45% 29.59 in - Variable 2.3 mph - N/A   Clear
7:50 AM 82.4 °F - 51.8 °F 35% 29.59 in - Variable 2.3 mph - N/A   Clear
8:20 AM 84.2 °F - 48.2 °F 29% 29.59 in - SSW 5.8 mph - N/A   Clear
8:50 AM 86.0 °F - 48.2 °F 27% 29.59 in - SSW 3.5 mph - N/A   Clear
9:00 AM 88 °F - 48 °F 16% 29.44 in 12 mi WNW 2.3 mph - -  
9:20 AM 89.6 °F - 50.0 °F 26% 29.59 in - Variable 2.3 mph - N/A   Clear
9:50 AM 89.6 °F - 51.8 °F 27% 29.59 in - West 3.5 mph - N/A   Clear
10:00 AM 92 °F - 47 °F 13% 29.44 in 12 mi NNW 2.3 mph - -  
10:20 AM 91.4 °F 89.1 °F 53.6 °F 28% 29.59 in - West 4.6 mph - N/A   Clear
10:50 AM 93.2 °F - 48.2 °F 21% 29.59 in 5.0 mi West 5.8 mph - N/A   Unknown
11:00 AM 95 °F - 49 °F 12% 29.43 in 5 mi NNW 4.6 mph - -   Blowing Sand
11:20 AM 95.0 °F - 48.2 °F 20% 29.59 in 4.3 mi West 4.6 mph - N/A   Unknown
11:50 AM 96.8 °F - 48.2 °F 19% 29.59 in 4.3 mi West 6.9 mph - N/A   Unknown
12:00 PM 97 °F - 49 °F 12% 29.42 in 5 mi West 6.9 mph - -   Blowing Sand
12:20 PM 98.6 °F - 48.2 °F 18% 29.59 in 4.3 mi West 4.6 mph - N/A   Unknown
12:50 PM 100.4 °F - 46.4 °F 16% 29.56 in 3.7 mi West 5.8 mph - N/A   Unknown
1:00 PM 100 °F - 47 °F 9% 29.42 in 5 mi WNW 17.9 mph - -   Blowing Sand
1:20 PM 100.4 °F - 46.4 °F 16% 29.56 in 3.7 mi West 8.1 mph - N/A   Unknown
1:50 PM 102.2 °F - 44.6 °F 14% 29.56 in 4.3 mi West 8.1 mph - N/A   Unknown
2:00 PM 101 °F - 46 °F 9% 29.42 in 6 mi WNW 17.9 mph - -   Scattered Clouds
2:20 PM 102.2 °F - 44.6 °F 14% 29.56 in 5.6 mi SSW 9.2 mph - N/A   Unknown
2:50 PM 104.0 °F - 46.4 °F 14% 29.56 in - SW 8.1 mph - N/A   Clear
3:00 PM 101 °F - 44 °F 8% 29.41 in 9 mi WNW 9.2 mph - -   Scattered Clouds
3:20 PM 104.0 °F - 44.6 °F 13% 29.56 in - SW 8.1 mph - N/A   Clear
3:50 PM 104.0 °F - 42.8 °F 12% 29.53 in 6.2 mi West 9.2 mph - N/A   Partly Cloudy
4:00 PM 102 °F - 40 °F 6% 29.41 in 12 mi NW 17.9 mph - -   Scattered Clouds
4:20 PM 104.0 °F - 39.2 °F 11% 29.53 in 6.2 mi WSW 9.2 mph - N/A   Partly Cloudy
4:50 PM 104.0 °F - 39.2 °F 11% 29.53 in 6.2 mi WSW 6.9 mph - N/A   Partly Cloudy
5:00 PM 102 °F - 40 °F 6% 29.41 in 12 mi WNW 17.9 mph - -   Scattered Clouds
5:20 PM 102.2 °F - 42.8 °F 13% 29.53 in 6.2 mi WSW 6.9 mph - N/A   Partly Cloudy
5:50 PM 102.2 °F - 42.8 °F 13% 29.53 in 6.2 mi SSW 4.6 mph - N/A   Partly Cloudy
6:00 PM 101 °F - 38 °F 6% 29.40 in 12 mi WNW 8.1 mph - -   Scattered Clouds
6:20 PM 98.6 °F 96.4 °F 53.6 °F 22% 29.53 in 6.2 mi South 4.6 mph - N/A   Partly Cloudy
6:50 PM 93.2 °F 91.3 °F 55.4 °F 28% 29.53 in 6.2 mi SSW 6.9 mph - N/A   Partly Cloudy
7:20 PM 93.2 °F - 51.8 °F 24% 29.56 in - SW 4.6 mph - N/A   Clear
7:50 PM 89.6 °F 87.3 °F 53.6 °F 29% 29.56 in - SSW 4.6 mph - N/A   Clear
8:20 PM 95.0 °F - 41.0 °F 15% 29.56 in - NW 6.9 mph - N/A   Clear
8:50 PM 93.2 °F - 39.2 °F 15% 29.56 in - NNW 5.8 mph - N/A   Clear
9:20 PM 89.6 °F - 41.0 °F 18% 29.56 in - NE 6.9 mph - N/A   Clear
9:50 PM 91.4 °F - 41.0 °F 17% 29.59 in - WSW 9.2 mph - N/A   Clear
10:20 PM 86.0 °F - 46.4 °F 25% 29.59 in - SSW 6.9 mph - N/A   Clear
10:50 PM 82.4 °F - 48.2 °F 30% 29.59 in - SW 4.6 mph - N/A   Clear
11:20 PM 78.8 °F - 50.0 °F 36% 29.59 in - South 4.6 mph - N/A   Clear
11:50 PM 78.8 °F - 46.4 °F 32% 29.59 in - SE 4.6 mph - N/A   Clear